Date String (YYYY-MM-DD hh:mm:ss) UTC,Instrument flags,Ambient pressure (hPa),Sample flow (lpm),Bypass flow (lpm),Sample temperature (°C),Ambient temperature (°C),ASC tube jacket temperature (°C),LED temperature (°C),Box temperature (°C),Sample RH (%),Span deviation,Mass concentration (μg/m³),Mass concentration (μg/m³),Mass concentration (μg/m³)
DateTimeUTC,F1_M11,P_M11,Q1_M11,Q2_M11,T1_M11,T2_M11,T3_M11,T4_M11,T5_M11,U1_M11,ZSPAN_M11,X0_M11,X2_M11,X1_M11
2021-10-18 11:00:00,,0821.8,5.01,0.00,29.7,28.7,00.0,38.8,31.4,09.4,-002.4,0010.43,0004.53,0003.98
2021-10-18 11:01:00,,0821.8,5.01,0.00,29.7,28.7,00.0,38.8,31.4,09.4,-002.5,0009.48,0004.59,0004.05
2021-10-18 11:02:00,,0821.8,5.00,0.00,29.7,28.7,00.0,38.8,31.4,09.3,-002.7,0009.58,0004.63,0004.09
2021-10-18 11:03:00,,0821.8,5.00,0.00,29.7,28.7,00.0,38.8,31.4,09.3,-002.8,0009.76,0004.65,0004.13
2021-10-18 11:04:00,,0821.8,4.99,0.00,29.7,28.7,00.0,38.8,31.4,09.4,-002.5,0009.65,0004.68,0004.15
2021-10-18 11:05:00,,0821.9,5.01,0.00,29.6,28.7,00.0,38.8,31.4,09.4,-002.3,0009.81,0004.73,0004.19
2021-10-18 11:06:00,,0822.0,5.01,0.00,29.7,28.7,00.0,38.8,31.4,09.4,-003.1,0010.45,0004.83,0004.27
2021-10-18 11:07:00,,0822.1,5.00,0.00,29.6,28.7,00.0,38.8,31.4,09.5,-002.8,0010.33,0004.88,0004.33
2021-10-18 11:08:00,,0822.1,5.00,0.00,29.7,28.7,00.0,38.8,31.4,10.1,-002.4,0010.22,0004.87,0004.33
2021-10-18 11:09:00,,0822.1,5.01,0.00,29.6,28.7,00.0,38.8,31.4,10.3,-001.5,0010.09,0004.80,0004.26
2021-10-18 11:10:00,,0822.1,5.00,0.00,29.7,28.7,00.0,38.8,31.4,10.3,-000.9,0010.07,0004.76,0004.19
2021-10-18 11:11:00,,0822.0,5.01,0.00,29.7,28.7,00.0,38.8,31.4,09.8,-000.7,0009.96,0004.73,0004.13
2021-10-18 11:12:00,,0821.9,5.01,0.00,29.7,28.7,00.0,38.8,31.4,09.7,-001.5,0009.85,0004.68,0004.09
2021-10-18 11:13:00,,0821.8,4.99,0.00,29.7,28.7,00.0,38.8,31.4,09.6,-002.1,0009.34,0004.67,0004.07
2021-10-18 11:14:00,,0821.8,5.01,0.00,29.7,28.7,00.0,38.8,31.4,09.5,0000.0,0008.63,0004.64,0004.02
2021-10-18 11:15:00,,0821.8,4.99,0.00,29.7,28.7,00.0,38.8,31.4,09.5,0000.0,0008.84,0004.60,0003.96
2021-10-18 11:16:00,,0821.8,4.99,0.00,29.7,28.7,00.0,38.8,31.4,09.4,0000.0,0008.80,0004.51,0003.90
2021-10-18 11:17:00,,0821.8,5.00,0.00,29.7,28.7,00.0,38.8,31.4,09.5,0000.0,0008.35,0004.44,0003.82
2021-10-18 11:18:00,,0821.8,5.00,0.00,29.7,28.7,00.0,38.8,31.4,09.5,0000.0,0008.86,0004.37,0003.77
2021-10-18 11:19:00,,0821.8,5.02,0.00,29.7,28.7,00.0,38.8,31.4,09.5,0000.0,0009.50,0004.35,0003.77
2021-10-18 11:20:00,,0821.8,5.00,0.00,29.7,28.7,00.0,38.8,31.4,09.5,0000.0,0009.62,0004.39,0003.81
2021-10-18 11:21:00,,0821.8,5.00,0.00,29.7,28.7,00.0,38.8,31.4,09.6,0000.0,0009.66,0004.39,0003.83
2021-10-18 11:22:00,,0821.9,4.97,0.00,29.7,28.7,00.0,38.8,31.4,09.6,0000.0,0009.94,0004.38,0003.82
2021-10-18 11:23:00,,0822.1,5.00,0.00,29.7,28.7,00.0,38.8,31.4,09.5,-000.1,0010.09,0004.35,0003.77
2021-10-18 11:24:00,,0822.0,5.00,0.00,29.7,28.7,00.0,38.8,31.4,09.5,0001.1,0010.02,0004.28,0003.73
2021-10-18 11:25:00,,0822.0,5.01,0.00,29.7,28.7,00.0,38.8,31.4,09.5,0003.0,0010.03,0004.27,0003.71
2021-10-18 11:26:00,,0821.8,5.00,0.00,29.7,28.8,00.0,38.8,31.4,09.5,0003.4,0009.88,0004.26,0003.70
2021-10-18 11:27:00,,0821.8,4.99,0.00,29.7,28.8,00.0,38.8,31.4,09.5,0003.3,0009.82,0004.30,0003.70
2021-10-18 11:28:00,,0821.8,5.00,0.00,29.7,28.7,00.0,38.8,31.4,09.5,0002.5,0009.81,0004.36,0003.72
2021-10-18 11:29:00,,0821.8,5.00,0.00,29.7,28.8,00.0,38.8,31.4,09.5,0000.4,0009.36,0004.40,0003.75
2021-10-18 11:30:00,,0821.8,4.99,0.00,29.7,28.8,00.0,38.8,31.4,09.5,-000.3,0009.22,0004.44,0003.78
2021-10-18 11:31:00,,0821.8,5.01,0.00,29.7,28.8,00.0,38.8,31.4,09.5,0000.2,0009.23,0004.46,0003.80
2021-10-18 11:32:00,,0821.9,4.99,0.00,29.7,28.8,00.0,38.8,31.4,09.6,-000.1,0009.19,0004.47,0003.82
2021-10-18 11:33:00,,0821.8,4.99,0.00,29.7,28.7,00.0,38.8,31.4,09.7,-000.1,0009.65,0004.49,0003.84
2021-10-18 11:34:00,,0821.9,5.00,0.00,29.7,28.7,00.0,38.8,31.4,09.8,-001.0,0009.64,0004.50,0003.85
2021-10-18 11:35:00,,0822.1,4.99,0.00,29.7,28.7,00.0,38.8,31.4,09.7,-001.2,0009.73,0004.56,0003.88
2021-10-18 11:36:00,,0821.8,5.00,0.00,29.7,28.7,00.0,38.8,31.4,09.7,-000.7,0010.08,0004.59,0003.90
2021-10-18 11:37:00,,0821.8,5.00,0.00,29.7,28.7,00.0,38.8,31.4,09.8,-000.7,0011.24,0004.60,0003.91
2021-10-18 11:38:00,,0821.8,4.99,0.00,29.7,28.7,00.0,38.8,31.4,09.7,-000.9,0011.38,0004.61,0003.92
2021-10-18 11:39:00,,0821.8,5.00,0.00,29.7,28.7,00.0,38.8,31.4,09.7,-000.8,0012.15,0004.57,0003.93
2021-10-18 11:40:00,,0821.8,5.01,0.00,29.7,28.7,00.0,38.8,31.4,09.7,0000.5,0012.40,0004.57,0003.92
2021-10-18 11:41:00,,0821.8,4.99,0.00,29.7,28.7,00.0,38.8,31.4,09.7,0001.5,0011.87,0004.55,0003.91
2021-10-18 11:42:00,,0821.8,5.01,0.00,29.7,28.7,00.0,38.8,31.4,09.7,0001.7,0012.11,0004.54,0003.91
2021-10-18 11:43:00,,0821.8,5.00,0.00,29.7,28.7,00.0,38.8,31.4,09.7,0002.0,0012.35,0004.57,0003.93
2021-10-18 11:44:00,,0821.8,5.00,0.00,29.7,28.7,00.0,38.8,31.4,09.8,0001.6,0011.68,0004.59,0003.94
2021-10-18 11:45:00,,0821.8,5.01,0.00,29.7,28.7,00.0,38.8,31.4,09.9,0001.6,0011.59,0004.64,0003.98
2021-10-18 11:46:00,,0821.8,5.01,0.00,29.7,28.7,00.0,38.8,31.4,09.9,0001.9,0011.64,0004.65,0003.97
2021-10-18 11:47:00,,0821.8,5.01,0.00,29.7,28.7,00.0,38.8,31.4,10.0,0000.6,0011.35,0004.65,0003.97
2021-10-18 11:48:00,,0821.8,4.99,0.00,29.7,28.7,00.0,38.8,31.4,10.0,-000.4,0010.63,0004.62,0003.95
2021-10-18 11:49:00,,0821.7,5.00,0.00,29.7,28.7,00.0,38.8,31.4,10.0,0000.6,0010.76,0004.58,0003.92
2021-10-18 11:50:00,,0821.7,4.99,0.00,29.7,28.7,00.0,38.8,31.4,09.9,0000.0,0010.19,0004.56,0003.89
2021-10-18 11:51:00,,0821.7,5.02,0.00,29.7,28.7,00.0,38.8,31.4,09.7,-000.7,0010.04,0004.52,0003.88
2021-10-18 11:52:00,,0821.6,4.99,0.00,29.7,28.7,00.0,38.8,31.4,09.6,0000.0,0010.01,0004.51,0003.87
2021-10-18 11:53:00,,0821.6,4.99,0.00,29.7,28.7,00.0,38.8,31.4,09.6,0000.0,0009.88,0004.51,0003.87
2021-10-18 11:54:00,,0821.7,5.01,0.00,29.7,28.7,00.0,38.8,31.4,09.7,-000.3,0010.18,0004.49,0003.84
2021-10-18 11:55:00,,0821.7,5.00,0.00,29.7,28.7,00.0,38.8,31.4,09.8,-001.0,0010.16,0004.44,0003.81
2021-10-18 11:56:00,,0821.8,4.99,0.00,29.7,28.7,00.0,38.8,31.4,10.0,-002.6,0010.10,0004.37,0003.76
2021-10-18 11:57:00,,0821.8,5.01,0.00,29.7,28.7,00.0,38.8,31.4,10.1,-003.0,0010.10,0004.29,0003.71
2021-10-18 11:58:00,,0821.8,5.00,0.00,29.7,28.7,00.0,38.8,31.4,10.1,-002.0,0010.41,0004.24,0003.65
2021-10-18 11:59:00,,0821.8,4.99,0.00,29.7,28.7,00.0,38.8,31.4,10.1,0000.0,0010.52,0004.23,0003.62
